[[{"header":{"parameterUnit":"m.s-1","parameterCategory":1,"la1":30.2991,"la2":30.254,"lo1":-89.0895,"lo2":-89.0444,"dy":0.0017,"dx":0.0017,"nx":28,"ny":28,"refTime":"2025-04-13T09:00:00:Z","depth":0,"parameterNumber":2,"parameterNumberName":"U-component_of_WINDS"},"data":[0,0,0,0,0,0,0,0,0,0,0,0,0,0,0,0,0,0,0,0,0,0,0,0,0,0,0,0,0,0,0,0,0,0,0,0,0,0,0,0,0,0,0,0,0,0,0,0,0,0,0,0,0,0,0,0,0,0,5.4755,5.4757,0,5.4905,5.4907,5.4908,5.485,5.4847,5.4843,5.484,5.4996,5.5003,5.5011,0,0,0,0,0,0,0,0,0,0,0,0,0,5.4419,5.4425,5.4755,5.4757,5.4759,5.4905,5.4907,5.4909,5.4851,5.4847,5.4842,5.4838,5.4994,5.5002,5.5011,0,0,0,0,0,0,0,0,0,0,0,0,0,5.4566,5.4427,5.4755,5.4747,5.4748,5.4904,5.4907,5.4909,5.4852,5.4846,5.4841,5.4836,5.4991,5.5001,5.5012,5.5186,0,0,5.5046,5.5051,0,0,0,0,0,0,0,0,5.4558,5.4579,5.4747,5.4748,5.4749,5.4853,5.4845,5.5002,5.4853,5.4813,5.484,5.4834,5.4953,5.4967,5.5007,5.5193,5.5199,5.5047,5.5054,5.5059,5.5062,0,0,0,0,0,0,0,5.4548,5.4572,5.4814,5.4749,5.4751,5.4737,5.4752,5.4875,5.491,5.4816,5.4812,5.483,5.4953,5.4996,5.501,5.5202,5.5047,5.5057,5.5064,5.5068,5.5534,5.5539,0,0,0,0,0,0,5.4537,5.4564,5.481,5.4819,5.4639,5.4747,5.4764,5.4825,5.4909,5.4916,5.4834,5.4827,5.498,5.4997,5.5015,5.522,5.5059,5.5069,5.5076,5.5528,5.5535,5.5541,0,0,0,0,0,0,5.453,5.4559,5.4804,5.469,5.472,5.4758,5.4828,5.4831,5.4874,5.4923,5.4929,5.4872,5.4976,5.4999,5.5143,5.5225,5.5074,5.5084,5.5522,5.553,5.5538,5.5634,0,0,0,0,0,0,5.4521,5.4557,5.4624,5.4692,5.4727,5.4929,5.4833,5.4838,5.4893,5.4885,5.496,5.4967,5.4974,5.5126,5.5154,5.5238,5.5093,5.5514,5.5526,5.5536,5.5624,5.5645,5.5663,0,0,0,0,0,5.4509,5.4646,5.4627,5.4657,5.481,5.4934,5.4953,5.4957,5.49,5.4967,5.4998,5.4965,5.5212,5.5141,5.5172,5.526,5.5509,5.5522,5.5535,5.5615,5.5641,5.5663,0,0,0,0,0,0,5.4588,5.4655,5.4635,5.4799,5.4861,5.4924,5.5008,5.4985,5.5066,5.5054,5.5057,5.5074,5.5221,5.5255,5.5176,5.5431,5.5352,5.5371,5.5403,5.5428,5.5447,5.5435,5.5102,0,0,0,0,0,5.4624,5.4718,5.4772,5.4911,5.4943,5.497,5.5025,5.5022,5.5087,5.5113,5.5154,5.5219,5.5311,5.5371,5.5459,5.5629,5.5643,5.5705,5.5724,5.574,5.5757,5.5846,5.5873,5.5584,5.5584,5.5583,0,0,5.47,5.4749,5.4808,5.4928,5.4976,5.5073,5.4993,5.51,5.5172,5.513,5.5266,5.5299,5.5371,5.5527,5.5599,5.5561,5.584,5.5757,5.5769,5.5777,5.5862,5.589,5.5914,5.5592,5.5591,5.5589,0,0,5.4888,5.4935,5.5055,5.5103,5.5176,5.5193,5.5221,5.5288,5.5307,5.5444,5.5413,5.5499,5.5658,5.5709,5.5757,5.5961,5.5933,5.599,5.6092,5.6179,5.6202,5.6222,5.6293,5.6318,5.6006,5.6007,5.6007,0,5.4974,5.5119,5.5119,5.5228,5.528,5.5245,5.5365,5.5413,5.5511,5.5548,5.5504,5.57,5.5747,5.5913,5.5962,5.6003,5.6034,5.5981,5.6199,5.6219,5.6238,5.6305,5.6332,5.6013,5.6012,5.6012,5.6011,0,5.5219,5.532,5.5408,5.5501,5.5564,5.5678,5.5695,5.5759,5.575,5.5771,5.591,5.5964,5.606,5.61,5.6094,5.6265,5.6238,5.6197,5.6118,5.6272,5.6335,5.6361,5.6022,5.602,5.6018,5.6016,0,0,5.5462,5.5552,5.5584,5.5624,5.5701,5.5779,5.589,5.5983,5.6036,5.6105,5.6197,5.6331,5.6292,5.6346,5.6345,5.6422,5.6577,5.637,5.6372,5.6405,5.6766,5.6795,5.6825,5.6559,5.6564,5.6568,5.6759,0,5.5654,5.5848,5.5851,5.603,5.6121,5.6088,5.6185,5.6242,5.6264,5.6345,5.637,5.6464,5.6407,5.6438,5.6513,5.6542,5.6649,5.6529,5.6644,5.6648,5.6625,5.6859,5.6891,5.7068,5.6784,5.6788,5.6791,0,5.5904,5.5978,5.6165,5.6225,5.6264,5.6351,5.6434,5.6513,5.6576,5.6587,5.6645,5.6632,5.6745,5.6663,5.6817,5.6735,5.6783,5.6804,5.6811,5.6821,5.6728,5.6872,5.7125,5.7151,5.6831,5.6827,5.6825,0,5.6058,5.6206,5.6336,5.6372,5.6446,5.6507,5.6541,5.66,5.6654,5.6728,5.6762,5.6849,5.6896,5.6963,5.6973,5.6912,5.7127,5.7046,5.7138,5.7138,5.7184,5.718,5.7445,5.7218,5.7218,5.7217,5.7216,0,5.6271,5.6387,5.6405,5.6486,5.6613,5.6615,5.6741,5.677,5.6822,5.6906,5.6884,5.6963,5.6973,5.7055,5.7064,5.7189,5.7211,5.7222,5.7222,5.7223,5.7221,5.7253,5.724,5.7224,5.7223,5.7221,5.722,0,5.6466,5.6483,5.6622,5.668,5.6697,5.6789,5.6838,5.6914,5.6933,5.704,5.7065,5.7096,5.7191,5.7208,5.7321,5.7327,5.7475,5.7465,5.7454,5.7451,5.7541,5.7531,5.7834,5.7873,5.7622,5.7625,5.7627,0,5.6599,5.6687,5.6753,5.6807,5.6844,5.6932,5.6986,5.6991,5.7049,5.7126,5.7193,5.7285,5.7359,5.7513,5.7546,5.7631,5.7621,5.7721,5.7634,5.763,5.7619,5.7613,5.7621,5.7737,5.774,5.7742,5.7744,0,5.6834,5.6837,5.6916,5.6998,5.7064,5.7129,5.7191,5.7236,5.7249,5.7315,5.7411,5.7469,5.7582,5.7674,5.7759,5.7793,5.7771,5.7771,5.7797,5.7797,5.7785,5.779,5.7497,5.7764,5.7762,5.7761,5.776,5.7759,5.7,5.7075,5.7132,5.7221,5.7267,5.7324,5.7397,5.7425,5.7505,5.7596,5.7595,5.7699,5.7759,5.787,5.791,5.7992,5.796,5.7997,5.8006,5.8015,5.8021,5.7774,5.8008,5.8007,5.8007,5.8006,5.8006,0,5.7231,5.7266,5.7347,5.7432,5.7501,5.7473,5.7539,5.7598,5.769,5.7747,5.7819,5.7929,5.8017,5.8055,5.8142,5.82,5.8191,5.8222,5.8217,5.8225,5.8047,5.8015,5.8227,5.8227,5.8227,5.8227,5.8227,5.8227,5.7359,5.7483,5.7493,5.7639,5.7673,5.7774,5.7814,5.7866,5.7911,5.8033,5.8106,5.813,5.8179,5.8268,5.8347,5.8356,5.8388,5.8423,5.8427,5.826,5.8238,5.8216,5.8186,5.8431,5.8431,5.8598,5.8599,5.86]},{"header":{"parameterUnit":"m.s-1","parameterCategory":1,"la1":30.2991,"la2":30.254,"lo1":-89.0895,"lo2":-89.0444,"dy":0.0017,"dx":0.0017,"nx":28,"ny":28,"refTime":"2025-04-13T09:00:00:Z","depth":0,"parameterNumber":3,"parameterNumberName":"V-component_of_WINDS"},"data":[0,0,0,0,0,0,0,0,0,0,0,0,0,0,0,0,0,0,0,0,0,0,0,0,0,0,0,0,0,0,0,0,0,0,0,0,0,0,0,0,0,0,0,0,0,0,0,0,0,0,0,0,0,0,0,0,0,0,1.4693,1.4693,0,1.4707,1.4707,1.4707,1.4674,1.4673,1.4672,1.4671,1.4685,1.4686,1.4687,0,0,0,0,0,0,0,0,0,0,0,0,0,1.4638,1.4639,1.4693,1.4693,1.4694,1.4707,1.4707,1.4707,1.4674,1.4673,1.4672,1.467,1.4684,1.4686,1.4687,0,0,0,0,0,0,0,0,0,0,0,0,0,1.4658,1.464,1.4693,1.4679,1.4678,1.4707,1.4707,1.4707,1.4674,1.4673,1.4671,1.467,1.4684,1.4686,1.4688,1.4731,0,0,1.4694,1.4695,0,0,0,0,0,0,0,0,1.4657,1.466,1.4681,1.468,1.4679,1.4687,1.4692,1.4715,1.4675,1.4676,1.4671,1.4669,1.4687,1.4688,1.4694,1.4732,1.4733,1.4694,1.4695,1.4696,1.4697,0,0,0,0,0,0,0,1.4656,1.4659,1.4699,1.4681,1.468,1.4671,1.4672,1.4697,1.469,1.4675,1.4673,1.4675,1.4686,1.4693,1.4694,1.4733,1.4694,1.4696,1.4697,1.4698,1.4805,1.4807,0,0,0,0,0,0,1.4656,1.4658,1.4698,1.4699,1.4664,1.4674,1.4675,1.4686,1.4689,1.4688,1.4676,1.4674,1.469,1.4692,1.4695,1.4745,1.4696,1.4698,1.4699,1.4804,1.4806,1.4807,0,0,0,0,0,0,1.4655,1.466,1.4698,1.4678,1.4682,1.4676,1.4689,1.4687,1.4694,1.469,1.4689,1.4685,1.4689,1.4692,1.4722,1.4745,1.4699,1.4701,1.4802,1.4804,1.4806,1.4847,0,0,0,0,0,0,1.4654,1.466,1.4677,1.4679,1.4683,1.4725,1.469,1.4688,1.4697,1.4694,1.4697,1.4697,1.4688,1.4719,1.4724,1.4747,1.4702,1.4799,1.4803,1.4806,1.4844,1.4851,1.4857,0,0,0,0,0,1.4652,1.4688,1.4678,1.4683,1.4704,1.4727,1.4729,1.4718,1.4699,1.4716,1.4713,1.4696,1.4742,1.4723,1.4728,1.4752,1.4798,1.4802,1.4805,1.4841,1.4849,1.4857,0,0,0,0,0,0,1.469,1.4688,1.4677,1.4715,1.4721,1.4721,1.4742,1.4728,1.474,1.4736,1.4722,1.4723,1.4756,1.4757,1.4735,1.4793,1.4767,1.4772,1.4792,1.48,1.4806,1.4805,1.4704,0,0,0,0,0,1.4702,1.4721,1.4718,1.4752,1.4756,1.4748,1.4758,1.4748,1.4754,1.4757,1.4757,1.4763,1.4778,1.4789,1.4803,1.4843,1.4843,1.4862,1.4869,1.4874,1.4879,1.4899,1.4907,1.482,1.4819,1.4819,0,0,1.4729,1.473,1.4743,1.476,1.4763,1.4782,1.4751,1.4773,1.4786,1.476,1.4789,1.4788,1.4794,1.483,1.4845,1.4831,1.4903,1.4879,1.4883,1.4885,1.4904,1.4912,1.4919,1.4822,1.4822,1.4821,0,0,1.4787,1.479,1.4818,1.4822,1.4828,1.4822,1.4829,1.4831,1.483,1.4858,1.4838,1.4854,1.4882,1.4886,1.4892,1.495,1.4935,1.4955,1.4989,1.5009,1.5016,1.5022,1.5042,1.505,1.496,1.496,1.496,0,1.4819,1.4847,1.4834,1.4857,1.4864,1.4841,1.4869,1.4873,1.4884,1.4889,1.4874,1.4906,1.4909,1.4944,1.4958,1.4964,1.4971,1.4955,1.5016,1.5022,1.5027,1.5046,1.5054,1.4962,1.4962,1.4962,1.4961,0,1.4886,1.4906,1.4927,1.4937,1.4947,1.4972,1.4963,1.4974,1.4964,1.496,1.4988,1.499,1.5003,1.5011,1.5001,1.5044,1.5036,1.5018,1.4991,1.5038,1.5056,1.5063,1.4966,1.4965,1.4964,1.4963,0,0,1.497,1.4971,1.4979,1.4983,1.4987,1.5001,1.5025,1.5038,1.5047,1.5055,1.5074,1.5097,1.508,1.5087,1.5077,1.5095,1.514,1.5075,1.5075,1.5087,1.5186,1.5199,1.5208,1.5129,1.513,1.5132,1.5186,0,1.5027,1.5067,1.5055,1.5095,1.5112,1.509,1.511,1.5114,1.5111,1.5124,1.512,1.5137,1.5114,1.5118,1.5134,1.5131,1.5159,1.5127,1.5146,1.5147,1.5146,1.5217,1.5231,1.5282,1.5193,1.5194,1.5195,0,1.5099,1.5108,1.515,1.515,1.5156,1.5175,1.5185,1.5199,1.5203,1.5199,1.5206,1.5192,1.5214,1.5187,1.5217,1.5195,1.5202,1.5201,1.5203,1.5204,1.5174,1.522,1.5298,1.5306,1.5205,1.5204,1.5204,0,1.5155,1.5178,1.5205,1.5209,1.521,1.5223,1.5224,1.5226,1.5234,1.5243,1.5248,1.5259,1.5266,1.5275,1.5264,1.5245,1.5296,1.5267,1.5293,1.5293,1.5305,1.5304,1.5385,1.531,1.5309,1.5309,1.5309,0,1.5219,1.5246,1.523,1.5248,1.5276,1.5262,1.529,1.5288,1.529,1.5306,1.5287,1.5302,1.5288,1.5302,1.5294,1.5319,1.5322,1.532,1.5317,1.5321,1.5322,1.5326,1.5322,1.5311,1.5311,1.531,1.531,0,1.5287,1.5278,1.5306,1.5304,1.5304,1.5325,1.5323,1.5338,1.5332,1.5353,1.5357,1.5348,1.5363,1.5354,1.5369,1.5364,1.5397,1.539,1.5396,1.5394,1.5419,1.5417,1.5506,1.5516,1.5435,1.5435,1.5436,0,1.5329,1.5348,1.5348,1.5357,1.5358,1.5374,1.5381,1.5367,1.5376,1.5381,1.5396,1.5409,1.5419,1.5444,1.5439,1.5451,1.5444,1.5474,1.5445,1.5448,1.5443,1.5442,1.5444,1.548,1.5481,1.5481,1.5482,0,1.5404,1.5398,1.541,1.542,1.5429,1.5437,1.5443,1.5451,1.5437,1.5448,1.5462,1.547,1.5485,1.5499,1.5508,1.5508,1.5493,1.5491,1.5497,1.5502,1.5504,1.5503,1.5411,1.5489,1.5488,1.5488,1.5487,1.5487,1.546,1.5475,1.5477,1.549,1.5493,1.5498,1.5512,1.5508,1.552,1.5531,1.5522,1.554,1.5542,1.5552,1.5555,1.5568,1.5556,1.5565,1.5568,1.557,1.5573,1.5502,1.557,1.557,1.5569,1.5569,1.5569,0,1.5533,1.5533,1.5545,1.5553,1.5563,1.5547,1.5552,1.5562,1.5578,1.5581,1.5591,1.5607,1.562,1.5615,1.5626,1.5638,1.5631,1.5641,1.564,1.564,1.5584,1.5577,1.5646,1.5646,1.5646,1.5646,1.5646,1.5646,1.5573,1.5598,1.5592,1.5618,1.5618,1.5634,1.5639,1.5643,1.5645,1.5665,1.5675,1.5671,1.5671,1.5682,1.5692,1.5691,1.5695,1.5708,1.5704,1.5652,1.5644,1.5637,1.563,1.5709,1.5709,1.5759,1.5759,1.5759]}]]